DW3085 Denton NE US current weather conditions

sailwx.info

Wind from 343

Air temperature -3.3° C
Dewpoint -15.0° C

Last reported at 2020-Jan-20 21:10 UTC.
Time now 2020-Jan-20 21:44 UTC

Location: N 42°07' W 071°25'.
View on Google Maps.

See reports from other nearby stations

  
Tides and Currents Weather Stations Pressure Air Temp Water Temp Dewpoint Dewpoint Depression Visibility Wind Speed Wind Dir Waves Ship Positions
date/time (UTC)wind fromknots sea level pressurealtimeterstation pressurevisibilityair tempwater tempwave heightnotes
2020-Jan-20 21:10 343 -3.3
2020-Jan-20 21:05 343 -2.8
2020-Jan-20 21:00 325 -2.8
2020-Jan-20 20:55 304 -2.8
2020-Jan-20 20:50 304 -2.8
2020-Jan-20 20:45 304 -2.8
2020-Jan-20 20:40 348 -2.8
2020-Jan-20 20:35 348 -2.8
2020-Jan-20 20:30 080 -2.8
2020-Jan-20 20:25 081 -2.8
2020-Jan-20 20:20 317 -2.8
2020-Jan-20 20:15 317 -2.8
2020-Jan-20 20:10 317 0 -2.8
2020-Jan-20 20:05 333 -2.8
2020-Jan-20 20:00 346 -2.8
2020-Jan-20 19:55 348 -2.8
2020-Jan-20 19:50 009 -2.8
2020-Jan-20 19:45 343 -2.8
2020-Jan-20 19:40 327 -2.8
2020-Jan-20 19:35 312 -2.8
2020-Jan-20 19:30 332 -2.8
2020-Jan-20 19:25 331 -2.8
2020-Jan-20 19:20 331 -2.8
2020-Jan-20 19:15 331 -2.8
2020-Jan-20 19:10 005 -2.8
2020-Jan-20 19:05 327 1 -2.8
2020-Jan-20 19:00 321 -2.8
2020-Jan-20 18:55 304 -2.8
2020-Jan-20 18:50 042 -2.8
2020-Jan-20 18:45 336 -2.8
2020-Jan-20 18:40 334 -3.3
2020-Jan-20 18:35 331 -3.3
2020-Jan-20 18:30 332 -3.3
2020-Jan-20 18:25 321 -3.3
2020-Jan-20 18:20 319 -3.3
2020-Jan-20 18:15 360 -3.3
2020-Jan-20 18:10 360 -3.9
2020-Jan-20 18:05 360 -3.9
2020-Jan-20 18:00 333 -3.9
2020-Jan-20 17:55 333 -3.9
2020-Jan-20 17:50 319 -3.9
2020-Jan-20 17:45 313 -3.9
2020-Jan-20 17:40 355 -3.9
2020-Jan-20 17:35 304 -3.9
2020-Jan-20 17:30 302 -3.9
2020-Jan-20 17:25 306 -3.9
2020-Jan-20 17:20 279 -3.9
2020-Jan-20 17:15 333 -3.9
2020-Jan-20 17:10 333 1 -3.9
2020-Jan-20 17:05 340 -3.9
2020-Jan-20 17:00 005 0 -4.4
2020-Jan-20 16:55 011 -4.4
2020-Jan-20 16:50 355 -4.4
2020-Jan-20 16:45 350 -4.4
2020-Jan-20 16:40 335 0 -4.4
2020-Jan-20 16:35 314 -4.4
2020-Jan-20 16:30 336 -4.4
2020-Jan-20 16:25 329 0 -4.4
2020-Jan-20 16:20 332 -5.0
2020-Jan-20 16:15 332 -5.0
2020-Jan-20 16:10 283 -5.6
2020-Jan-20 16:05 333 -5.6
2020-Jan-20 16:00 297 0 -5.6
2020-Jan-20 15:55 316 0 -5.6
2020-Jan-20 15:50 027 -5.6
2020-Jan-20 15:45 027 -5.6
2020-Jan-20 15:40 330 -5.6
2020-Jan-20 15:35 338 -5.6
2020-Jan-20 15:30 338 -6.1
2020-Jan-20 15:25 335 -6.7
2020-Jan-20 15:20 323 -6.7
2020-Jan-20 15:15 311 4 -6.7
2020-Jan-20 15:10 329 0 -6.7
2020-Jan-20 15:05 107 -6.7
2020-Jan-20 15:00 108 -6.7
2020-Jan-20 14:55 024 -6.7
2020-Jan-20 14:50 302 -7.2
2020-Jan-20 14:45 040 -7.2
2020-Jan-20 14:40 307 -7.2
2020-Jan-20 14:35 317 -7.8
2020-Jan-20 14:30 312 -7.8
2020-Jan-20 14:25 312 -7.8
2020-Jan-20 14:20 312 -7.8
2020-Jan-20 14:15 312 -7.8
2020-Jan-20 14:10 332 -7.8
2020-Jan-20 14:05 342 -8.3
2020-Jan-20 14:00 333 -8.3
2020-Jan-20 13:55 331 -8.3
2020-Jan-20 13:50 331 -8.9
2020-Jan-20 13:45 100 0 -8.9
2020-Jan-20 13:40 323 -8.9
2020-Jan-20 13:35 336 -8.9
2020-Jan-20 13:30 343 -8.9
2020-Jan-20 13:25 343 -8.9
2020-Jan-20 13:20 343 -8.9
2020-Jan-20 13:15 348 -8.9
2020-Jan-20 13:10 348 -8.9
2020-Jan-20 13:05 348 -8.9
2020-Jan-20 13:00 032 -8.9
2020-Jan-20 12:55 325 -8.9
2020-Jan-20 12:50 330 0 -8.9
2020-Jan-20 12:45 019 -8.9
2020-Jan-20 12:40 019 -8.9
2020-Jan-20 12:35 019 -8.9
2020-Jan-20 12:30 020 -8.9
2020-Jan-20 12:25 319 -8.9
2020-Jan-20 12:20 331 -8.9
2020-Jan-20 12:15 331 -8.9
2020-Jan-20 12:10 331 -8.9
2020-Jan-20 12:05 331 -8.9
2020-Jan-20 12:00 331 -8.9
2020-Jan-20 11:55 331 -8.9
2020-Jan-20 11:50 331 -8.9
2020-Jan-20 11:45 331 -8.9
2020-Jan-20 11:40 337 -8.9
2020-Jan-20 11:35 336 -8.9
2020-Jan-20 11:30 336 -8.9
2020-Jan-20 11:25 337 -8.9
2020-Jan-20 11:20 337 -8.9
2020-Jan-20 11:15 337 -8.9
2020-Jan-20 11:10 337 -8.9
2020-Jan-20 11:05 337 -8.9
2020-Jan-20 11:00 337 -8.9
2020-Jan-20 10:55 336 -8.9
2020-Jan-20 10:50 335 -8.9
2020-Jan-20 10:45 333 -8.9
2020-Jan-20 10:40 333 -8.3
2020-Jan-20 10:35 333 -8.3
2020-Jan-20 10:30 333 -8.3
2020-Jan-20 10:25 332 -8.3
2020-Jan-20 10:20 332 -8.3
2020-Jan-20 10:15 347 -8.3
2020-Jan-20 10:10 340 -8.3
2020-Jan-20 10:05 340 -8.3
2020-Jan-20 10:00 340 -8.3
2020-Jan-20 09:55 340 -8.3
2020-Jan-20 09:50 348 -8.3
2020-Jan-20 09:45 348 -8.3
2020-Jan-20 09:40 017 -8.3
2020-Jan-20 09:35 021 -8.3
2020-Jan-20 09:30 022 -7.8
2020-Jan-20 09:25 022 -7.8
2020-Jan-20 09:20 325 -7.8
2020-Jan-20 09:15 325 -7.8
2020-Jan-20 09:10 325 -7.8
2020-Jan-20 09:05 325 -7.8
2020-Jan-20 09:00 325 -7.8
2020-Jan-20 08:55 338 -7.8
2020-Jan-20 08:50 349 -7.8
2020-Jan-20 08:45 326 -7.8
2020-Jan-20 08:40 326 -7.8
2020-Jan-20 08:35 323 -7.8
2020-Jan-20 08:30 309 -7.8
2020-Jan-20 08:25 309 -7.8
2020-Jan-20 08:20 309 -7.8
2020-Jan-20 08:15 309 -7.8
2020-Jan-20 08:10 333 -7.8
2020-Jan-20 08:05 333 -7.2
2020-Jan-20 08:00 355 -7.2
2020-Jan-20 07:55 360 -7.2
2020-Jan-20 07:50 005 -7.2
2020-Jan-20 07:45 355 -7.2
2020-Jan-20 07:40 024 -7.2
2020-Jan-20 07:35 332 -7.2
2020-Jan-20 07:30 332 -7.2
2020-Jan-20 07:25 351 -7.2
2020-Jan-20 07:20 005 -7.2
2020-Jan-20 07:15 005 -7.2
2020-Jan-20 07:10 005 -7.2
2020-Jan-20 07:05 005 -6.7
2020-Jan-20 07:00 005 -6.7
2020-Jan-20 06:55 005 -6.7
2020-Jan-20 06:50 028 -6.7
2020-Jan-20 06:45 028 -6.7
2020-Jan-20 06:40 035 -6.7
2020-Jan-20 06:35 040 -6.7
2020-Jan-20 06:30 042 -6.7
2020-Jan-20 06:25 098 -6.7
2020-Jan-20 06:20 098 -6.1
2020-Jan-20 06:05 360 -6.1
2020-Jan-20 06:00 360 -6.1
2020-Jan-20 05:55 360 -5.6
2020-Jan-20 05:50 036 -5.6
2020-Jan-20 05:45 343 -5.6
2020-Jan-20 05:40 301 -5.6
2020-Jan-20 05:35 351 -5.6
2020-Jan-20 05:30 303 2 -5.0
2020-Jan-20 05:25 331 -5.0
2020-Jan-20 05:20 005 -5.0
2020-Jan-20 05:15 330 -4.4
2020-Jan-20 05:10 302 -4.4
2020-Jan-20 05:05 038 -4.4
2020-Jan-20 05:00 014 -3.9
2020-Jan-20 04:55 330 -3.9
2020-Jan-20 04:50 332 -3.9
2020-Jan-20 04:45 305 -3.3
2020-Jan-20 04:40 317 5 -3.3
2020-Jan-20 04:35 301 2 -3.3
2020-Jan-20 04:30 323 -3.3
2020-Jan-20 04:25 349 -3.3
2020-Jan-20 04:20 325 0 -3.3
2020-Jan-20 04:15 312 -2.8
2020-Jan-20 04:10 346 0 -2.8
2020-Jan-20 04:05 304 -2.8
2020-Jan-20 04:00 299 1 -2.8
2020-Jan-20 03:55 339 -2.8
2020-Jan-20 03:50 301 3 -2.2
2020-Jan-20 03:45 313 -2.2
2020-Jan-20 03:40 269 -2.2
2020-Jan-20 03:35 331 -2.2
2020-Jan-20 03:30 321 -2.2
2020-Jan-20 03:25 328 4 -1.7
2020-Jan-20 03:20 324 -1.7
2020-Jan-20 03:15 277 -1.7
2020-Jan-20 03:10 290 2 -1.1
2020-Jan-20 03:05 298 -1.1
2020-Jan-20 03:00 321 -1.1
2020-Jan-20 02:55 321 -1.1
2020-Jan-20 02:50 309 -1.1
2020-Jan-20 02:45 307 0 -1.1
2020-Jan-20 02:40 315 2 -1.1
2020-Jan-20 02:35 329 2 -1.1
2020-Jan-20 02:30 319 2 -1.1
2020-Jan-20 02:25 295 -1.1
2020-Jan-20 02:20 299 5 -1.1
2020-Jan-20 02:15 306 1 -0.6
2020-Jan-20 02:10 309 -1.1
2020-Jan-20 02:05 321 -0.6
2020-Jan-20 02:00 313 -0.6
2020-Jan-20 01:55 307 -0.6
2020-Jan-20 01:50 307 -0.6
2020-Jan-20 01:45 304 -0.6
2020-Jan-20 01:40 297 -0.6
2020-Jan-20 01:35 323 -0.6
2020-Jan-20 01:30 327 0 -0.6
2020-Jan-20 01:25 302 -0.6
2020-Jan-20 01:20 310 0 -0.0
2020-Jan-20 01:15 314 2 -0.0
2020-Jan-20 01:10 301 -0.0
2020-Jan-20 01:05 301 -0.0
2020-Jan-20 01:00 304 -0.0
2020-Jan-20 00:55 304 -0.0
2020-Jan-20 00:50 304 -0.0
2020-Jan-20 00:45 313 2 0.6
2020-Jan-20 00:40 315 0.6
2020-Jan-20 00:35 301 0.6
2020-Jan-20 00:30 287 0.6
2020-Jan-20 00:25 320 0.6
2020-Jan-20 00:20 277 1.1
2020-Jan-20 00:15 316 1 1.1
2020-Jan-20 00:10 317 1.1
2020-Jan-20 00:05 309 2 1.1
2020-Jan-20 00:00 304 1.1
2020-Jan-19 23:55 296 1.1
2020-Jan-19 23:50 294 0 1.1
2020-Jan-19 23:45 293 1.1
2020-Jan-19 23:40 293 1.7
2020-Jan-19 23:35 302 1.7
2020-Jan-19 23:30 306 1.7
2020-Jan-19 23:25 306 0 1.7
2020-Jan-19 23:20 288 2 1.7
2020-Jan-19 23:15 333 1.7
2020-Jan-19 23:10 298 0 1.7
2020-Jan-19 23:05 299 1.7
2020-Jan-19 23:00 298 1.7
2020-Jan-19 22:55 298 1.7
2020-Jan-19 22:50 298 2.2
2020-Jan-19 22:45 314 2.2
2020-Jan-19 22:40 312 2.2
2020-Jan-19 22:35 312 2.2
2020-Jan-19 22:30 312 2.2
2020-Jan-19 22:25 312 2.2
2020-Jan-19 22:20 312 2.2
2020-Jan-19 22:15 312 2.2
2020-Jan-19 22:10 308 2.8
2020-Jan-19 22:05 313 2.8
2020-Jan-19 22:00 301 2.8
2020-Jan-19 21:55 301 0 2.8
2020-Jan-19 21:50 301 2.8
2020-Jan-19 21:45 291 1 2.8
2020-Jan-19 21:40 319 0 3.3
2020-Jan-19 21:35 301 1 3.3
2020-Jan-19 21:30 276 3.3
2020-Jan-19 21:25 299 0 3.3
2020-Jan-19 21:20 311 0 3.3
2020-Jan-19 21:15 315 3.3
2020-Jan-19 21:10 314 3.3
2020-Jan-19 21:05 314 3.3
2020-Jan-19 21:00 314 3.3
2020-Jan-19 20:55 324 0 3.3
2020-Jan-19 20:50 333 3.3
2020-Jan-19 20:45 294 4 3.3
2020-Jan-19 20:40 300 1 3.9
2020-Jan-19 20:35 295 3.9
2020-Jan-19 20:30 295 0 3.9
2020-Jan-19 20:25 291 3.9
2020-Jan-19 20:20 282 3.9
2020-Jan-19 20:15 318 3.9
2020-Jan-19 20:10 319 3.9
2020-Jan-19 20:05 319 3.9
2020-Jan-19 20:00 321 4.4
2020-Jan-19 19:55 304 4.4
2020-Jan-19 19:50 311 4.4
2020-Jan-19 19:45 305 4.4
2020-Jan-19 19:40 290 0 4.4
2020-Jan-19 19:35 321 4.4
2020-Jan-19 19:30 316 4 4.4
2020-Jan-19 19:25 315 4.4
2020-Jan-19 19:20 284 4.4
2020-Jan-19 19:15 291 1 4.4
2020-Jan-19 19:10 302 4.4
2020-Jan-19 19:05 307 3 4.4
2020-Jan-19 19:00 323 1 4.4
2020-Jan-19 18:55 328 4.4
2020-Jan-19 18:50 310 4.4
2020-Jan-19 18:45 312 1 4.4
2020-Jan-19 18:40 313 4.4
2020-Jan-19 18:35 311 5 4.4
2020-Jan-19 18:30 304 1 4.4
2020-Jan-19 18:25 276 3 4.4
2020-Jan-19 18:20 318 4.4
2020-Jan-19 18:15 325 4.4
2020-Jan-19 18:10 315 3 4.4
2020-Jan-19 18:05 307 4.4
2020-Jan-19 18:00 302 2 4.4
2020-Jan-19 17:55 323 1 4.4
2020-Jan-19 17:50 331 3 4.4
2020-Jan-19 17:45 287 3 4.4
2020-Jan-19 17:40 331 2 4.4
2020-Jan-19 17:35 300 0 4.4
2020-Jan-19 17:30 298 2 4.4
2020-Jan-19 17:25 290 1 4.4
2020-Jan-19 17:20 295 1 4.4
2020-Jan-19 17:15 306 3 4.4
2020-Jan-19 17:10 306 4.4
2020-Jan-19 17:05 288 4.4
2020-Jan-19 17:00 281 4.4
2020-Jan-19 16:55 313 3 4.4
2020-Jan-19 16:50 306 0 4.4
2020-Jan-19 16:45 319 4.4
2020-Jan-19 16:40 317 4.4
2020-Jan-19 16:35 323 4.4
2020-Jan-19 16:30 331 4.4
2020-Jan-19 16:25 317 2 3.9
2020-Jan-19 16:20 317 3.9
2020-Jan-19 16:15 321 3.9
2020-Jan-19 16:10 331 3.9
2020-Jan-19 16:00 287 3.9
2020-Jan-19 15:55 309 3.9
2020-Jan-19 15:50 292 3.9
2020-Jan-19 15:45 292 3.9
2020-Jan-19 15:40 302 3.3
2020-Jan-19 15:35 303 2.8
2020-Jan-19 15:30 303 3.3
2020-Jan-19 15:25 315 2 2.8
2020-Jan-19 15:20 068 2.2
2020-Jan-19 15:15 068 1.7
2020-Jan-19 15:10 068 0.6
2020-Jan-19 15:05 069 -0.0
2020-Jan-19 15:00 068 -1.1
2020-Jan-19 14:55 068 -1.7
2020-Jan-19 14:50 068 -2.2
2020-Jan-19 14:45 069 -2.8
2020-Jan-19 14:40 069 -3.3
2020-Jan-19 14:35 069 -3.3
2020-Jan-19 14:30 069 -3.9
2020-Jan-19 14:25 069 -3.9
2020-Jan-19 14:20 069 -4.4
2020-Jan-19 14:15 069 -4.4
2020-Jan-19 14:10 069 -5.0
2020-Jan-19 14:05 069 -5.0
2020-Jan-19 14:00 069 -5.0
2020-Jan-19 13:55 069 -5.0
2020-Jan-19 13:50 069 -5.6
2020-Jan-19 13:45 069 -5.6
2020-Jan-19 13:40 069 -5.6
2020-Jan-19 13:35 069 -5.6
2020-Jan-19 13:30 069 -5.6
2020-Jan-19 13:25 069 -5.6
2020-Jan-19 13:20 069 -5.6
2020-Jan-19 13:15 069 -5.6
2020-Jan-19 13:10 069 -5.6
2020-Jan-19 13:05 069 -5.6
2020-Jan-19 13:00 069 -5.6
2020-Jan-19 12:55 069 -5.6
2020-Jan-19 12:50 069 -5.6
2020-Jan-19 12:45 069 -5.0
2020-Jan-19 12:40 069 -5.0
2020-Jan-19 12:35 069 -5.0
2020-Jan-19 12:30 069 -5.0
2020-Jan-19 12:25 069 -5.0
2020-Jan-19 12:20 069 -5.0
2020-Jan-19 12:15 069 -5.0
2020-Jan-19 12:10 069 -4.4
2020-Jan-19 12:05 069 -4.4
2020-Jan-19 12:00 069 -4.4
2020-Jan-19 11:55 069 -4.4
2020-Jan-19 11:50 069 -4.4
2020-Jan-19 11:45 069 -4.4
2020-Jan-19 11:40 069 -4.4
2020-Jan-19 11:35 069 -4.4
2020-Jan-19 11:30 069 -4.4
2020-Jan-19 11:25 069 -4.4
2020-Jan-19 11:20 069 -4.4
2020-Jan-19 11:15 069 -4.4
2020-Jan-19 11:10 069 -4.4
2020-Jan-19 11:05 069 -5.0
2020-Jan-19 11:00 069 -5.0
2020-Jan-19 10:55 069 -5.0
2020-Jan-19 10:50 069 -5.0
2020-Jan-19 10:45 069 -5.0
2020-Jan-19 10:40 069 -5.0
2020-Jan-19 10:35 069 -5.0
2020-Jan-19 10:30 069 -5.0
2020-Jan-19 10:25 069 -5.0
2020-Jan-19 10:20 069 -5.0
2020-Jan-19 10:15 069 -5.0
2020-Jan-19 10:10 069 -5.0
2020-Jan-19 10:05 069 -5.0
2020-Jan-19 10:00 069 -5.0
2020-Jan-19 09:55 069 -5.0
2020-Jan-19 09:50 069 -5.0
2020-Jan-19 09:45 069 -5.0
2020-Jan-19 09:40 069 -5.0
2020-Jan-19 09:35 069 -5.0
2020-Jan-19 09:30 069 -5.0
2020-Jan-19 09:25 069 -5.0
2020-Jan-19 09:20 069 -5.6
2020-Jan-19 09:15 069 -5.6
2020-Jan-19 09:10 069 -5.6
2020-Jan-19 09:05 069 -5.6
2020-Jan-19 09:00 069 -5.6
2020-Jan-19 08:55 069 -5.6
2020-Jan-19 08:50 069 -5.6
2020-Jan-19 08:45 069 -5.6
2020-Jan-19 08:40 069 -5.6
2020-Jan-19 08:35 069 -5.6
2020-Jan-19 08:30 069 -5.6
2020-Jan-19 08:25 069 -5.6
2020-Jan-19 08:20 069 -5.6
2020-Jan-19 08:15 069 -5.6
2020-Jan-19 08:10 069 -5.6
2020-Jan-19 08:05 069 -5.6
2020-Jan-19 08:00 069 -5.6
2020-Jan-19 07:55 069 -5.6
2020-Jan-19 07:50 069 -5.6
2020-Jan-19 07:45 069 -5.6
2020-Jan-19 07:40 069 -5.6
2020-Jan-19 07:35 069 -5.6
2020-Jan-19 07:30 069 -5.6
2020-Jan-19 07:25 069 -5.6
2020-Jan-19 07:20 069 -5.6
2020-Jan-19 07:15 069 -5.6
2020-Jan-19 07:10 069 -5.6
2020-Jan-19 07:05 069 -5.6
2020-Jan-19 07:00 068 -5.6
2020-Jan-19 06:55 068 -5.6
2020-Jan-19 06:50 068 -5.6
2020-Jan-19 06:45 068 -5.6
2020-Jan-19 06:40 068 -5.6
2020-Jan-19 06:35 068 -5.6
2020-Jan-19 06:30 068 -5.6
2020-Jan-19 06:25 068 -5.6
2020-Jan-19 06:20 069 -5.0
2020-Jan-19 06:15 077 -5.0
2020-Jan-19 06:10 077 -5.0
2020-Jan-19 05:55 078 -5.0
2020-Jan-19 05:50 078 -5.0
2020-Jan-19 05:45 078 -5.0
2020-Jan-19 05:40 078 -5.0
2020-Jan-19 05:35 078 -5.0
2020-Jan-19 05:30 078 -5.0
2020-Jan-19 05:25 078 -5.0
2020-Jan-19 05:20 078 -5.0
2020-Jan-19 05:15 078 -5.0
2020-Jan-19 05:10 078 -5.0
2020-Jan-19 05:05 078 -5.0
2020-Jan-19 05:00 078 -5.6
2020-Jan-19 04:55 078 -5.6
2020-Jan-19 04:50 078 -5.6
2020-Jan-19 04:45 078 -5.6
2020-Jan-19 04:40 078 -5.6
2020-Jan-19 04:35 078 -5.6
2020-Jan-19 04:30 078 -5.6
2020-Jan-19 04:25 078 -5.6
2020-Jan-19 04:20 078 -5.6
2020-Jan-19 04:15 078 -5.6
2020-Jan-19 04:10 078 -5.6
2020-Jan-19 04:05 078 -5.6
2020-Jan-19 04:00 078 -5.6
2020-Jan-19 03:55 078 -5.6
2020-Jan-19 03:50 078 -5.6
2020-Jan-19 03:45 078 -5.6
2020-Jan-19 03:40 078 -6.1
2020-Jan-19 03:35 078 -6.1
2020-Jan-19 03:30 078 -6.1
2020-Jan-19 03:25 078 -6.1
2020-Jan-19 03:20 078 -6.1
2020-Jan-19 03:15 078 -6.1
2020-Jan-19 03:10 078 -6.1
2020-Jan-19 03:05 078 -6.1
2020-Jan-19 03:00 078 -6.1
2020-Jan-19 02:55 078 -6.1
2020-Jan-19 02:50 078 -6.1
2020-Jan-19 02:45 078 -6.1
2020-Jan-19 02:40 078 -6.1
2020-Jan-19 02:35 078 -6.1
2020-Jan-19 02:30 078 -6.1
2020-Jan-19 02:25 079 -6.1
2020-Jan-19 02:20 079 -6.7
2020-Jan-19 02:15 079 -6.7
2020-Jan-19 02:10 079 -6.7
2020-Jan-19 02:05 079 -6.7
2020-Jan-19 02:00 079 -6.7
2020-Jan-19 01:55 079 -6.7
2020-Jan-19 01:50 079 -6.7
2020-Jan-19 01:45 079 -6.7
2020-Jan-19 01:40 079 -6.7
2020-Jan-19 01:35 079 -6.7
2020-Jan-19 01:30 079 -6.7
2020-Jan-19 01:25 079 -6.7
2020-Jan-19 01:20 079 -6.7
2020-Jan-19 01:15 079 -6.7
2020-Jan-19 01:10 079 -6.7
2020-Jan-19 01:05 079 -6.7
2020-Jan-19 01:00 079 -6.7
2020-Jan-19 00:55 079 -6.7
2020-Jan-19 00:50 079 -6.7
2020-Jan-19 00:45 079 -6.7
2020-Jan-19 00:40 078 -6.7
2020-Jan-19 00:35 078 -6.7
2020-Jan-19 00:30 078 -6.7
2020-Jan-19 00:25 078 -6.7
2020-Jan-19 00:20 078 -6.7
2020-Jan-19 00:15 078 -6.7
2020-Jan-19 00:10 069 -6.7
2020-Jan-19 00:05 069 -6.7
2020-Jan-19 00:00 069 -6.7
2020-Jan-18 23:55 069 -6.7
2020-Jan-18 23:50 069 -6.7
2020-Jan-18 23:45 069 -6.7
2020-Jan-18 23:40 069 -6.7
2020-Jan-18 23:35 068 -6.7
2020-Jan-18 23:30 068 -6.7
2020-Jan-18 23:25 068 -6.7
2020-Jan-18 23:20 066 -6.7
2020-Jan-18 23:15 066 -6.7
2020-Jan-18 23:10 066 -6.7
2020-Jan-18 23:05 066 -6.7
2020-Jan-18 23:00 066 -6.7
2020-Jan-18 22:55 066 -6.7
2020-Jan-18 22:50 066 -6.7
2020-Jan-18 22:45 066 -6.7
2020-Jan-18 22:40 063 -6.7
2020-Jan-18 22:35 063 -6.1
2020-Jan-18 22:30 062 -6.1
2020-Jan-18 22:25 024 -6.1
2020-Jan-18 22:20 112 -6.1
2020-Jan-18 22:15 112 -6.1
2020-Jan-18 22:10 112 -6.1
2020-Jan-18 22:05 112 -6.1
2020-Jan-18 22:00 112 -6.1
2020-Jan-18 21:55 112 -5.6
2020-Jan-18 21:50 112 -5.6
2020-Jan-18 21:45 131 -5.6
2020-Jan-18 21:40 131 -5.6
2020-Jan-18 21:35 131 -5.6
2020-Jan-18 21:30 132 -5.6
2020-Jan-18 21:25 132 -5.6
2020-Jan-18 21:20 132 -5.6
2020-Jan-18 21:15 132 -5.6
2020-Jan-18 21:10 132 -5.6
2020-Jan-18 21:05 132 -5.6
2020-Jan-18 21:00 132 -5.6